Weather History for Fort Indiantown Gap, PA

Change the Weather History Date:

Tuesday, October 15, 2013

  Actual Average Record
Temperature  
Mean Temperature 58 °F -  
Max Temperature 71 °F 61 °F 77 °F (2008)
Min Temperature 46 °F 44 °F 35 °F (2002)
Degree Days  
Heating Degree Days 6    
Growing Degree Days 8 (Base 50)    
Moisture  
Dew Point 49 °F    
Average Humidity 92    
Maximum Humidity 100    
Minimum Humidity 39    
Precipitation  
Precipitation 0.00 in - - ()
Sea Level Pressure  
Sea Level Pressure 30.22 in    
Wind  
Wind Speed 1 mph (NE)    
Max Wind Speed 6 mph    
Max Gust Speed -    
Visibility 4 miles    
Events Fog    
Averages and records for this station are not official NWS values.
T = Trace of Precipitation, MM = Missing Value Source: NWS Daily Summary

Daily Weather History Graph

Daily Weather History Graph

Search for Another Location

Airport:

Trip Planner

Search our weather history database for the weather conditions in past years. The results will help you decide how hot, cold, wet, or windy it might be!

Date:

Astronomy

Oct. 15, 2013 Rise Set
Actual Time 7:17 AM EDT 6:25 PM EDT
Civil Twilight 6:49 AM EDT 6:53 PM EDT
Nautical Twilight 6:18 AM EDT 7:24 PM EDT
Astronomical Twilight 5:46 AM EDT 7:56 PM EDT
Moon 4:30 PM EDT (10/15) 3:37 AM EDT (10/15)
Length of Visible Light 12h 03m
Length of Day
11h 08m
Waxing Gibbous, 87% of the Moon is Illuminated
Oct 15
Waxing Gibbous
Oct 18
Full
Oct 26
Last Quarter
Nov 3
New
Nov 10
First Quarter

Hourly Weather History & Observations

Time (EDT) Temp. Windchill Dew Point Humidity Pressure Visibility Wind Dir Wind Speed Gust Speed Precip Events Conditions
12:02 AM 51.8 °F - 51.8 °F 100% 30.26 in 3.0 mi Calm Calm - N/A   Clear
12:08 AM 51.8 °F - 51.8 °F 100% 30.26 in 2.5 mi Calm Calm - N/A   Clear
12:28 AM 51.8 °F - 51.8 °F 100% 30.25 in 3.0 mi Calm Calm - N/A   Clear
12:40 AM 51.8 °F - 51.8 °F 100% 30.25 in 2.5 mi Calm Calm - N/A   Clear
12:42 AM 51.8 °F - 51.8 °F 100% 30.25 in 3.0 mi Calm Calm - N/A   Clear
12:48 AM 51.8 °F - 51.8 °F 100% 30.25 in 2.5 mi Calm Calm - N/A   Clear
12:58 AM 50.9 °F - 50.5 °F 99% 30.26 in 2.5 mi Calm Calm - N/A   Clear
1:52 AM 50.0 °F - 50.0 °F 100% 30.25 in 1.8 mi Calm Calm - N/A   Clear
1:54 AM 50.0 °F - 50.0 °F 100% 30.25 in 2.0 mi NNE 1.2 mph - N/A   Clear
1:58 AM 49.8 °F - 49.5 °F 99% 30.26 in 2.0 mi NNE 1.2 mph - N/A   Clear
2:34 AM 50.0 °F - 48.2 °F 94% 30.24 in 1.8 mi Calm Calm - N/A   Clear
2:36 AM 48.2 °F - 48.2 °F 100% 30.24 in 1.5 mi Variable 2.3 mph - N/A   Clear
2:42 AM 48.2 °F - 48.2 °F 100% 30.24 in 1.8 mi North 1.2 mph - N/A   Clear
2:44 AM 50.0 °F - 50.0 °F 100% 30.24 in 2.0 mi Calm Calm - N/A   Clear
2:58 AM 51.3 °F - 51.1 °F 99% 30.25 in 2.5 mi Calm Calm - N/A   Clear
3:32 AM 48.2 °F - 48.2 °F 100% 30.23 in 1.8 mi SE 1.2 mph - N/A   Clear
3:38 AM 48.2 °F - 48.2 °F 100% 30.22 in 2.0 mi Calm Calm - N/A   Clear
3:50 AM 48.2 °F - 48.2 °F 100% 30.22 in 1.8 mi Calm Calm - N/A   Clear
3:54 AM 48.2 °F - 48.2 °F 100% 30.22 in 2.0 mi Calm Calm - N/A   Clear
3:58 AM 48.4 °F - 48.0 °F 99% 30.23 in 2.5 mi Calm Calm - N/A   Clear
4:00 AM 48.2 °F - 48.2 °F 100% 30.22 in 3.0 mi Calm Calm - N/A   Clear
4:04 AM 48.2 °F - 48.2 °F 100% 30.22 in 2.5 mi Calm Calm - N/A   Clear
4:12 AM 48.2 °F - 46.4 °F 93% 30.22 in 1.8 mi Calm Calm - N/A   Clear
4:20 AM 48.2 °F - 48.2 °F 100% 30.22 in 1.5 mi Calm Calm - N/A   Clear
4:22 AM 48.2 °F - 46.4 °F 93% 30.22 in 1.2 mi Calm Calm - N/A   Clear
4:24 AM 48.2 °F - 46.4 °F 93% 30.22 in 1.0 mi Calm Calm - N/A   Clear
4:36 AM 46.4 °F 45.2 °F 46.4 °F 100% 30.23 in 0.8 mi NNE 3.5 mph - N/A   Clear
4:42 AM 46.4 °F 44.3 °F 46.4 °F 100% 30.22 in 0.5 mi NNE 4.6 mph - N/A Fog Fog
4:54 AM 48.2 °F - 48.2 °F 100% 30.22 in 0.8 mi NE 4.6 mph - N/A   Clear
4:56 AM 48.2 °F - 48.2 °F 100% 30.22 in 1.0 mi NE 3.5 mph - N/A   Clear
4:58 AM 48.2 °F - 48.2 °F 100% 30.23 in 1.2 mi ENE 2.3 mph - N/A   Clear
5:00 AM 48.2 °F - 48.2 °F 100% 30.22 in 1.8 mi ENE 2.3 mph - N/A   Clear
5:02 AM 48.2 °F - 48.2 °F 100% 30.22 in 2.0 mi NE 2.3 mph - N/A   Clear
5:08 AM 48.2 °F - 48.2 °F 100% 30.22 in 1.8 mi Variable 1.2 mph - N/A   Clear
5:18 AM 48.2 °F - 48.2 °F 100% 30.23 in 2.0 mi Calm Calm - N/A   Clear
5:50 AM 48.2 °F - 48.2 °F 100% 30.23 in 1.8 mi Calm Calm - N/A   Clear
5:54 AM 48.2 °F - 48.2 °F 100% 30.23 in 2.0 mi Calm Calm - N/A   Clear
5:58 AM 47.8 °F - 47.5 °F 99% 30.24 in 2.0 mi Calm Calm - N/A   Clear
6:00 AM 48.2 °F - 48.2 °F 100% 30.23 in 1.5 mi Calm Calm - N/A   Clear
6:04 AM 46.4 °F - 46.4 °F 100% 30.23 in 1.2 mi Calm Calm - N/A   Clear
6:18 AM 46.4 °F - 46.4 °F 100% 30.22 in 1.0 mi Calm Calm - N/A   Clear
6:26 AM 46.4 °F - 46.4 °F 100% 30.23 in 1.2 mi Calm Calm - N/A   Clear
6:28 AM 46.4 °F - 46.4 °F 100% 30.23 in 1.5 mi Calm Calm - N/A   Clear
6:32 AM 46.4 °F - 46.4 °F 100% 30.22 in 1.8 mi Calm Calm - N/A   Clear
6:36 AM 46.4 °F - 46.4 °F 100% 30.22 in 2.0 mi Calm Calm - N/A   Clear
6:42 AM 46.4 °F - 46.4 °F 100% 30.22 in 1.2 mi Calm Calm - N/A   Clear
6:44 AM 46.4 °F - 46.4 °F 100% 30.22 in 1.0 mi Calm Calm - N/A   Clear
6:46 AM 46.4 °F - 46.4 °F 100% 30.22 in 0.8 mi Calm Calm - N/A   Clear
6:50 AM 46.4 °F - 46.4 °F 100% 30.22 in 0.5 mi Calm Calm - N/A Fog Fog
6:58 AM 46.8 °F - 46.6 °F 99% 30.23 in 0.5 mi Calm Calm - N/A Fog Fog
7:00 AM 46.4 °F - 46.4 °F 100% 30.23 in 0.2 mi Calm Calm - N/A Fog Fog
7:04 AM 48.2 °F - 46.4 °F 93% 30.23 in 0.5 mi Calm Calm - N/A Fog Fog
7:12 AM 48.2 °F - 46.4 °F 93% 30.23 in 0.8 mi Calm Calm - N/A   Clear
7:14 AM 48.2 °F - 46.4 °F 93% 30.23 in 1.0 mi Calm Calm - N/A   Clear
7:18 AM 46.4 °F - 46.4 °F 100% 30.23 in 7.0 mi Calm Calm - N/A   Clear
7:58 AM 48.2 °F - 48.2 °F 100% 30.26 in 7.0 mi Calm Calm - N/A   Clear
8:58 AM 53.6 °F - 53.6 °F 100% 30.26 in 7.0 mi NNE 1.2 mph - N/A   Clear
9:58 AM 59.0 °F - 51.8 °F 77% 30.26 in 6.2 mi ESE 3.5 mph - N/A   Clear
10:58 AM 62.6 °F - 51.8 °F 68% 30.24 in 7.0 mi Variable 3.5 mph - N/A   Clear
11:58 AM 64.4 °F - 51.8 °F 64% 30.23 in 7.0 mi Variable 2.3 mph - N/A   Clear
12:56 PM 68.0 °F - 50.0 °F 52% 30.20 in 10.0 mi ESE 3.5 mph - N/A   Clear
12:58 PM 68.0 °F - 50.0 °F 52% 30.21 in 10.0 mi Variable 3.5 mph - N/A   Clear
1:58 PM 69.6 °F - 47.5 °F 45% 30.16 in 10.0 mi Variable 3.5 mph - N/A   Clear
2:58 PM 70.3 °F - 44.4 °F 39% 30.15 in 10.0 mi Calm Calm - N/A   Clear
3:58 PM 71.4 °F - 47.1 °F 42% 30.14 in 10.0 mi SE 5.8 mph - N/A   Clear
4:58 PM 69.3 °F - 47.3 °F 45% 30.13 in 10.0 mi South 2.3 mph - N/A   Clear
5:58 PM 64.0 °F - 52.7 °F 67% 30.12 in 10.0 mi North 2.3 mph - N/A   Clear
6:58 PM 59.7 °F - 51.8 °F 75% 30.13 in 10.0 mi North 2.3 mph - N/A   Clear
7:58 PM 56.7 °F - 51.4 °F 83% 30.14 in 10.0 mi NE 2.3 mph - N/A   Clear
8:58 PM 55.2 °F - 52.0 °F 89% 30.13 in 10.0 mi NNE 2.3 mph - N/A   Clear
9:58 PM 55.0 °F - 51.6 °F 88% 30.14 in 10.0 mi Calm Calm - N/A   Clear
10:58 PM 53.2 °F - 51.8 °F 95% 30.14 in 10.0 mi ENE 3.5 mph - N/A   Clear
11:58 PM 54.7 °F - 49.5 °F 83% 30.11 in 10.0 mi NE 4.6 mph - N/A   Clear